Regional Weather Roundup
Issued by NWS

Home | Current Version | Previous Version | Graphics & Text | Print | Product List | Glossary On
Versions: 1 2 3 4 5 6 7 8 9 10 11 12 13 14 15 16 17 18 19 20 21 22 23 24 25 26 27 28 29 30 31 32 33 34 35 36 37 38 39 40 41 42 43 44 45 46 47 48 49 50
000
ASUS43 KIND 200809
RWRIN

WEATHER ROUNDUP FOR INDIANA
NATIONAL WEATHER SERVICE INDIANAPOLIS IN
400 AM EDT WED SEP 20 2017

NOTE: "FAIR" INDICATES FEW OR NO CLOUDS BELOW 12,000 FEET WITH NO
SIGNIFICANT WEATHER AND/OR OBSTRUCTIONS TO VISIBILITY.

* - STATION DOES NOT REPORT WEATHER SUCH AS PRECIPITATION OR FOG.

+ - STATION NOT QUALITY CONTROLLED BY THE NATIONAL WEATHER SERVICE.
    USE DATA WITH CAUTION...ESPECIALLY DEWPOINT AND RELATIVE
    HUMIDITY OBSERVATIONS.

INZ001>003-010>013-019-020-200900-
NORTHWEST INDIANA

CITY           SKY/WX    TMP DP  RH WIND       PRES   REMARKS
GARY /AIRPORT/ CLEAR     65  65 100 SE5       29.92R FOG
KNOX *+        CLOUDY    57  57 100 CALM      29.92S VSB 1/4
LA PORTE +     FOG       61  61 100 CALM      29.93S VSB<1/4
MICHIGAN CITY+ FOG       57  57 100 CALM      29.93R VSB 1/4
MONTICELLO +   CLEAR     62  61  96 CALM      29.92S FOG
RENSSELAER +   FOG       59  55  88 CALM      29.92S VSB 1/2
VALPARAISO     FOG       62  62 100 CALM      29.92F VSB 1/4

$$

LMZ046-743>745-200900-
SOUTHERN LAKE MICHIGAN

STATION/POSITION TIME  TEMP    WIND        PRES    WAVE
                       AIR SEA DIR/SP/G            HT
                 (UTC) (F)     (DEG/KT/KT) (MB)    (FT)
BURNS HARBOR     0740   67     170/  7/ 11 1013.2F
MICHIGAN CITY    0740   64     130/  7/  7   N/A
5NW MICH CITY    0750   66 69  170/  4/  6   N/A     1

$$

INZ004-005-014>016-021>024-200900-
NORTH CENTRAL INDIANA

CITY           SKY/WX    TMP DP  RH WIND       PRES   REMARKS
GOSHEN         FOG       66  64  93 CALM      29.92F VSB 1/2
LOGANSPORT +   CLEAR     61  59  94 CALM      29.93F FOG
PERU/GRISSOM   CLEAR     64  64 100 S5        29.92S
ROCHESTER +    CLEAR     64  64 100 CALM      29.93S FOG
SOUTH BEND     FOG       64  64 100 SE3       29.93S VSB 1/4
WARSAW +       FOG       63  63 100 CALM      29.93F VSB 1/2

$$

INZ006>009-017-018-025>027-200900-
NORTHEAST INDIANA

CITY           SKY/WX    TMP DP  RH WIND       PRES   REMARKS
AUBURN +       FOG       64  63  94 CALM      29.95S VSB 1/4
FORT WAYNE     FOG       64  62  93 S3        29.94F VSB 1
HUNTINGTON +   PTCLDY    64  63  96 CALM      29.94S FOG
KENDALLVILLE + FOG       65  65 100 SW3       29.95S VSB 1

$$

INZ028-029-035-036-043>045-051>053-200900-
WEST CENTRAL INDIANA

CITY           SKY/WX    TMP DP  RH WIND       PRES   REMARKS
CRAWFORDSVL +  CLEAR     63  63 100 S3        29.93F FOG
GREENCASTLE +  FOG       63  63 100 CALM      29.94S VSB 1/4
LAFAYETTE      CLEAR     63  63 100 CALM      29.91F
TERRE HAUTE    CLEAR     65  64  97 CALM      29.92F FOG

$$

INZ030>032-037>040-046>048-054>057-064-065-200900-
CENTRAL INDIANA

CITY           SKY/WX    TMP DP  RH WIND       PRES   REMARKS
CP ATTERBURY + FOG       64  63  94 CALM      29.96S VSB 1/4
FISHERS *+     CLEAR     64  64 100 SE3       29.94F
FRANKFORT +    CLEAR     65  64  96 CALM      29.95S FOG
GREENWOOD *+   CLOUDY    69  69  98 SE3       29.95F VSB 3/4
INDIANAPOLIS   PTCLDY    67  66  97 SE5       29.94S
-EAGLE CREEK   PTCLDY    67  65  93 CALM      29.93F FOG
KOKOMO +       PTCLDY    63  63 100 S3        29.94F FOG
MT COMFORT *+    N/A    N/A N/A N/A MISG        N/A
SHELBYVILLE    CLEAR     66  63  90 SE7       29.94F FOG
ZIONSVILLE +   FOG       61  61 100 CALM      29.95S VSB 1/4

$$

INZ033-034-041-042-049-050-058-059-200900-
EAST CENTRAL INDIANA

CITY           SKY/WX    TMP DP  RH WIND       PRES   REMARKS
MUNCIE         PTCLDY    68  65  90 S5        29.95S
RICHMOND +     CLOUDY    61  61 100 S5        29.98S FOG

$$

INZ060-061-067>069-081>083-085>088-200900-
SOUTHWEST INDIANA

CITY           SKY/WX    TMP DP  RH WIND       PRES   REMARKS
EVANSVILLE     CLEAR     69  68  96 CALM      29.93F
HUNTINGBURG +    N/A    N/A N/A N/A MISG        N/A
WASHINGTON +   CLEAR     67  65  94 SE3       29.93S FOG

$$

INZ062-063-066-070>080-084-089>092-200900-
SOUTH CENTRAL AND SOUTHEAST INDIANA

CITY           SKY/WX    TMP DP  RH WIND       PRES   REMARKS
BEDFORD +      CLEAR     66  64  94 SE3       29.94F FOG
BLOOMINGTON    FOG       67  65  93 SE3       29.95S VSB 1/2
MADISON *+     CLOUDY    64  63  94 CALM      29.99S VSB<1/4
NORTH VERNON + CLEAR     63  63 100 CALM      29.97S FOG
SEYMOUR +      FOG       64  64 100 CALM      29.96S VSB 1/4

$$




USA.gov is the U.S. government's official web portal to all federal, state and local government web resources and services.